Dewpoint
13 13 13 12 12 11 11 11 11 12 11 11 11 11 11 11 11 11 11 10 10 10 9 9 9 9 9 8 8 8 8 8 8 8 7 6 6 6 6 5 5 4 4 4 4 3 3 2 2 3 3 2 2 2 2 3 3 2 3 3 3 4 6 3 -1 -5 -7 -10 -12 -13 -15 -16 -12 -9 -6 -6 -8 -10 -4 -10 -10 -10 -10 -9 -9
10 11 11 11 11 11 11 11 11 11 10 10 10 10 10 10 10 9 9 9 9 8 8 8 8 7 7 7 7 7 7 7 6 6 5 4 4 4 4 3 3 3 2 2 2 2 2 1 1 1 2 1 1 -0 -0 -0 0 -0 -0 0 0 0 2 2 -1 -3 -7 -13 -14 -15 -17 -17 -17 -12 -7 -8 -7 -8 -8 -9 -10 -10 -10 -10 -10
8 11 11 10 10 10 11 11 10 10 10 9 9 9 9 8 8 7 7 7 7 7 6 6 6 6 5 5 5 5 5 5 5 5 4 4 3 3 3 2 2 1 1 1 1 1 0 -0 -1 -0 -0 -1 -1 -1 -1 -2 -2 -2 -2 -2 -2 -2 -1 2 2 -3 -4 -8 -14 -14 -15 -16 -15 -14 -13 -12 -8 -10 -7 -8 -10 -11 -10 -11 -11
8 10 10 9 9 9 10 10 9 9 8 8 7 7 7 7 7 7 6 6 5 6 5 5 5 4 4 4 3 3 3 3 3 3 3 2 2 1 1 0 0 -0 -1 -0 -0 -1 -1 -2 -2 -2 -2 -3 -3 -4 -3 -3 -3 -3 -3 -3 -3 -3 -3 -2 -1 -1 -4 -6 -7 -13 -14 -15 -15 -15 -14 -14 -12 -8 -8 -8 -9 -9 -11 -11 -11
9 10 10 9 9 9 9 9 8 7 7 6 6 6 6 6 6 5 5 5 5 4 4 4 3 3 2 2 2 2 2 2 2 1 1 1 0 -1 -1 -2 -2 -2 -2 -2 -2 -3 -3 -3 -3 -3 -3 -4 -5 -5 -4 -4 -4 -4 -4 -4 -4 -4 -4 -4 -3 -3 -4 -6 -6 -9 -13 -13 -14 -15 -15 -14 -12 -9 -8 -9 -9 -9 -9 -11 -11
7 9 9 8 8 7 7 7 6 6 6 5 5 5 5 5 5 5 4 4 3 2 2 3 2 2 1 1 1 1 1 1 0 -0 -1 -1 -1 -2 -3 -3 -4 -4 -4 -4 -4 -4 -4 -4 -4 -4 -4 -5 -6 -5 -5 -5 -4 -4 -4 -4 -4 -4 -4 -4 -4 -5 -5 -6 -7 -8 -11 -12 -13 -14 -16 -14 -13 -12 -10 -10 -12 -11 -9 -10 -9
4 4 6 6 6 6 5 4 4 5 4 4 4 3 4 4 4 4 3 2 2 1 1 1 1 1 1 0 0 0 -0 -0 -1 -1 -2 -2 -3 -4 -4 -5 -5 -5 -5 -5 -5 -5 -4 -4 -4 -4 -5 -5 -6 -6 -6 -6 -6 -6 -6 -5 -4 -5 -6 -6 -6 -6 -7 -8 -8 -9 -10 -12 -13 -15 -14 -15 -13 -12 -11 -12 -12 -11 -11 -11 -11
1 1 4 5 5 4 4 4 3 3 3 2 2 3 3 3 3 2 2 0 0 1 1 0 0 0 -0 -0 -0 -1 -1 -1 -2 -2 -3 -3 -4 -4 -5 -6 -6 -6 -6 -5 -5 -5 -5 -4 -5 -5 -5 -5 -5 -6 -6 -7 -7 -7 -7 -6 -7 -7 -8 -8 -7 -8 -9 -9 -10 -12 -11 -13 -12 -14 -14 -13 -13 -13 -11 -13 -13 -12 -11 -10 -13
1 1 2 3 3 3 3 3 3 3 2 2 2 2 2 2 2 2 1 1 1 1 0 -0 -1 -1 -1 -1 -2 -2 -2 -2 -3 -3 -4 -4 -5 -5 -6 -6 -6 -7 -6 -6 -5 -4 -3 -2 -2 -2 -2 -3 -3 -4 -5 -6 -8 -9 -9 -8 -9 -10 -11 -11 -11 -11 -11 -13 -11 -11 -13 -14 -14 -14 -14 -13 -14 -13 -12 -13 -13 -12 -11 -12 -12
1 1 1 2 2 2 2 2 2 2 1 1 1 1 1 1 1 1 1 1 0 0 -0 -1 -1 -2 -3 -2 -3 -3 -3 -3 -1 -2 -2 -5 -6 -6 -7 -7 -7 -7 -7 -7 -8 -8 -7 -5 -2 -2 -2 -2 -3 -3 -4 -4 -6 -8 -9 -10 -11 -11 -12 -13 -13 -14 -15 -15 -13 -13 -13 -16 -15 -15 -15 -14 -14 -13 -12 -11 -13 -12 -13 -13 -13
0 -1 -1 -1 0 1 1 1 1 0 1 1 1 1 1 1 -0 -1 -1 -0 -0 -1 -1 -2 -2 -2 -3 -3 -3 -3 -2 -1 1 7 8 3 -6 -7 -7 -7 -7 -8 -8 -9 -9 -9 -9 -8 -8 -6 -4 -3 -3 -3 -3 -3 -3 -3 -3 -4 -7 -11 -13 -13 -13 -13 -14 -14 -15 -16 -16 -16 -14 -15 -14 -13 -13 -13 -12 -12 -13 -14 -16 -16 -16
1 -1 -3 -2 -1 0 0 0 -0 -0 0 0 0 0 0 -0 -1 -2 -1 -1 -1 -1 -2 -2 -2 -3 -3 -3 -3 -3 -2 1 10 11 9 7 -2 -7 -8 -8 -8 -9 -9 -10 -10 -10 -10 -10 -9 -8 -7 -8 -7 -5 -4 -4 -5 -5 -4 -4 -4 -3 -6 -11 -13 -15 -17 -17 -15 -15 -18 -18 -17 -15 -13 -12 -10 -12 -12 -14 -16 -16 -17 -18 -15
-1 -2 -3 -3 -2 -0 0 -0 -1 -1 -1 -0 -1 -1 -1 -2 -4 -3 -2 -1 -1 -2 -2 -2 -2 -2 -2 -2 -3 -1 -1 5 11 11 10 9 6 -6 -8 -8 -9 -10 -10 -11 -12 -11 -11 -10 -10 -10 -9 -8 -10 -10 -9 -8 -8 -9 -9 -9 -8 -6 -4 -4 -7 -12 -16 -18 -18 -17 -19 -19 -14 -13 -11 -9 -7 -10 -9 -14 -16 -17 -17 -17 -16
-2 -3 -4 -3 -3 -1 -1 -1 -1 -1 -1 -1 -1 -2 -3 -5 -4 -3 -1 -1 -2 -2 -2 -1 -1 -1 -0 -0 0 1 2 8 10 11 10 10 7 0 -8 -9 -9 -11 -11 -11 -12 -11 -11 -11 -12 -13 -13 -12 -12 -12 -12 -13 -13 -14 -15 -15 -15 -12 -9 -8 -7 -7 -11 -20 -21 -16 -14 -17 -12 -9 -6 -5 -6 -9 -9 -12 -14 -16 -17 -16 -15
-3 -3 -4 -4 -3 -1 -1 -1 -1 -1 -1 -2 -2 -2 -2 -3 -3 -2 -2 -2 -2 -1 -1 -0 1 1 2 3 4 5 6 8 10 10 11 10 8 -5 -9 -10 -11 -11 -11 -11 -11 -11 -12 -13 -13 -13 -14 -15 -13 -12 -13 -14 -15 -16 -16 -17 -17 -17 -16 -15 -14 -14 -11 -16 -15 -13 -11 -9 -8 -7 -6 -6 -7 -7 -9 -11 -14 -17 -19 -21 -22
-3 -4 -4 -4 -4 -3 -2 -2 -2 -2 -2 -2 -3 -3 -3 -3 -3 -1 -2 -1 -1 0 0 1 1 2 3 3 4 5 7 9 9 10 11 9 3 -10 -11 -11 -12 -12 -12 -12 -12 -12 -12 -12 -13 -13 -14 -13 -11 -11 -11 -13 -17 -17 -17 -18 -18 -17 -17 -10 -1 1 -4 -8 -10 -9 -8 -6 4 1 0 -1 -4 -13 -15 -20 -24 -30 -23 -22 -23
-4 -4 -4 -5 -4 -4 -2 -2 -2 -2 -3 -3 -3 -3 -3 -3 -2 -2 -2 -1 -1 -1 -0 0 1 1 2 3 4 5 6 7 8 8 7 8 -5 -11 -11 -12 -13 -13 -13 -13 -13 -13 -13 -13 -13 -13 -12 -13 -10 -10 -8 -8 -18 -18 -19 -21 -21 -19 -15 -16 -6 -2 3 4 4 6 7 6 4 4 5 4 -3 -11 -20 -20 -22 -30 -22 -23 -22
-4 -4 -5 -5 -5 -4 -2 -2 -2 -3 -4 -4 -4 -2 -2 -2 -2 -1 -2 -2 -2 -1 -1 -1 -0 0 2 3 4 4 4 5 5 6 6 6 -8 -12 -12 -13 -14 -15 -15 -14 -13 -13 -12 -14 -13 -14 -15 -14 -9 -7 -2 -8 -18 -18 -19 -20 -19 -18 -16 -17 -19 -17 -2 0 1 -1 -4 -8 -11 -8 -2 -2 -5 -12 -23 -24 -24 -27 -24 -27 -24
-5 -5 -5 -5 -5 -4 -2 -2 -2 -3 -4 -3 -3 -2 -2 -2 -2 -1 -2 -2 -2 -1 -1 -2 -2 -2 -1 3 4 2 2 3 4 5 4 4 -8 -11 -12 -13 -15 -15 -15 -15 -12 -10 -10 -12 -14 -16 -15 -14 -10 1 2 -4 -14 -19 -19 -17 -20 -21 -15 -21 -20 -19 -18 -19 -21 -22 -21 -19 -21 -23 -20 -15 -14 -14 -22 -23 -25 -26 -25 -24 -25
-5 -6 -6 -5 -5 -4 -3 -2 -2 -3 -4 -3 -2 -2 -2 -2 -2 -2 -2 -2 -2 -2 -2 -3 -4 -3 -2 -0 1 1 1 1 2 3 3 -1 -4 -12 -12 -13 -14 -14 -14 -14 -14 -14 -13 -13 -10 -8 -9 -10 -7 -0 3 3 -9 -17 -18 -17 -18 -18 -18 -19 -14 -18 -24 -25 -23 -25 -23 -23 -22 -24 -26 -25 -22 -21 -19 -21 -23 -25 -25 -26 -26
-6 -6 -6 -6 -5 -5 -4 -4 -4 -4 -4 -3 -2 -2 -2 -2 -2 -3 -3 -3 -3 -3 -4 -4 -5 -4 -4 -2 -2 -2 -1 1 2 2 1 -2 -5 -10 -12 -13 -13 -14 -15 -14 -13 -14 -15 -15 -14 -11 -11 -10 -9 -5 5 5 -5 -17 -23 -21 -17 -13 -11 -23 -20 -15 -26 -24 -24 -24 -23 -23 -24 -25 -26 -24 -23 -22 -23 -22 -23 -25 -25 -25 -25
-6 -7 -6 -6 -6 -6 -6 -5 -5 -5 -4 -3 -3 -3 -3 -2 -3 -3 -3 -3 -4 -4 -4 -5 -6 -6 -6 -5 -6 -5 -4 1 0 0 -1 -2 -4 -7 -11 -12 -12 -13 -14 -14 -14 -15 -15 -15 -16 -13 -12 -10 -9 -1 4 2 -6 -15 -17 -0 -2 -5 -13 -19 -24 -26 -27 -26 -26 -24 -24 -23 -23 -22 -21 -22 -21 -20 -23 -24 -26 -26 -26 -23 -22
-7 -7 -7 -7 -7 -7 -6 -6 -5 -5 -4 -3 -4 -4 -4 -4 -4 -4 -4 -4 -4 -5 -5 -6 -6 -6 -7 -8 -7 -7 -6 -2 -0 -1 -2 -2 -3 -5 -8 -8 -8 -12 -14 -15 -15 -13 -16 -17 -14 -13 -11 -9 -3 2 -0 -6 -9 -8 -1 -4 -8 -9 -13 -22 -20 -27 -27 -27 -27 -25 -25 -25 -23 -22 -22 -22 -21 -24 -24 -24 -24 -26 -25 -23 -21
-8 -8 -8 -8 -8 -8 -8 -7 -7 -6 -5 -5 -4 -5 -4 -4 -4 -4 -4 -5 -5 -5 -5 -6 -6 -7 -8 -7 -6 -6 -5 -4 -0 -1 -2 -3 -5 -4 -6 -7 -9 -15 -14 -16 -15 -14 -19 -21 -15 -13 -9 -6 -1 -4 -9 -11 -12 -10 -10 -10 -11 -11 -21 -23 -25 -26 -25 -27 -28 -25 -24 -24 -26 -24 -24 -22 -21 -22 -22 -23 -23 -25 -25 -24 -24
-9 -10 -10 -10 -9 -9 -8 -8 -8 -6 -6 -5 -5 -4 -5 -5 -5 -4 -5 -5 -6 -6 -6 -7 -7 -7 -8 -8 -8 -8 -7 -6 -3 -3 -3 -4 -4 -5 -8 -10 -10 -11 -16 -15 -15 -16 -12 -11 -11 -9 -9 -11 -11 -12 -12 -12 -12 -12 -12 -11 -11 -23 -23 -24 -25 -27 -27 -27 -27 -26 -25 -24 -23 -22 -22 -22 -22 -22 -25 -24 -26 -24 -24 -24 -24
-10 -10 -11 -10 -10 -9 -8 -8 -8 -7 -6 -5 -5 -4 -5 -5 -5 -5 -6 -6 -6 -7 -7 -7 -7 -7 -8 -8 -9 -9 -8 -8 -5 -4 -4 -3 -5 -7 -8 -10 -12 -12 -12 -14 -11 -12 -12 -11 -12 -13 -13 -14 -14 -17 -16 -17 -11 -12 -12 -12 -23 -24 -22 -25 -27 -27 -27 -27 -26 -24 -22 -23 -23 -24 -24 -24 -25 -24 -25 -24 -23 -23 -25 -24 -23
-10 -11 -11 -11 -11 -9 -8 -7 -7 -6 -6 -6 -5 -5 -5 -5 -5 -6 -6 -7 -7 -7 -7 -7 -8 -8 -8 -9 -9 -9 -9 -9 -8 -6 -5 -5 -7 -7 -8 -9 -11 -11 -15 -15 -12 -16 -13 -14 -13 -13 -13 -13 -14 -13 -14 -14 -19 -22 -24 -25 -25 -26 -25 -26 -27 -27 -27 -26 -24 -23 -23 -24 -25 -25 -25 -26 -25 -24 -26 -23 -24 -24 -23 -23 -24
-10 -11 -11 -11 -10 -9 -9 -9 -8 -7 -7 -6 -6 -5 -5 -5 -6 -6 -7 -7 -7 -8 -8 -8 -8 -8 -8 -9 -10 -10 -10 -10 -9 -8 -8 -8 -8 -9 -11 -13 -14 -17 -19 -22 -23 -18 -20 -13 -17 -22 -22 -23 -24 -26 -26 -27 -25 -23 -25 -27 -27 -25 -20 -16 -15 -25 -26 -27 -26 -27 -26 -27 -26 -25 -26 -27 -25 -24 -25 -26 -25 -24 -24 -24 -26
-11 -12 -11 -11 -11 -9 -9 -9 -8 -8 -8 -7 -6 -6 -6 -6 -6 -6 -5 -5 -6 -7 -7 -7 -7 -7 -7 -8 -10 -11 -10 -10 -10 -7 -9 -8 -10 -13 -14 -14 -17 -20 -16 -13 -18 -20 -22 -27 -25 -24 -26 -24 -25 -27 -27 -27 -25 -27 -29 -28 -30 -32 -31 -28 -28 -26 -26 -28 -27 -26 -24 -26 -25 -27 -27 -26 -25 -24 -26 -27 -26 -26 -24 -29 -27
-11 -11 -11 -12 -11 -10 -10 -9 -9 -9 -8 -8 -9 -9 -8 -5 -5 -7 -8 -5 -4 -4 -4 -7 -6 -6 -6 -7 -8 -9 -10 -9 -7 -6 -6 -6 -8 -9 -10 -12 -13 -16 -13 -13 -14 -24 -26 -26 -28 -27 -26 -28 -28 -26 -26 -28 -28 -27 -28 -19 -24 -28 -27 -27 -28 -25 -27 -27 -27 -27 -25 -28 -26 -26 -26 -25 -24 -26 -25 -21 -25 -27 -27 -27 -27
-11 -12 -12 -12 -11 -10 -10 -10 -10 -10 -9 -9 -9 -9 -8 -7 -5 -5 -6 -5 -4 -4 -3 -3 -3 -4 -5 -7 -6 -6 -6 -6 -6 -6 -5 -5 -6 -8 -9 -10 -11 -12 -10 -12 -20 -22 -22 -22 -24 -27 -26 -28 -28 -26 -27 -28 -26 -27 -27 -28 -29 -27 -25 -27 -26 -26 -26 -27 -27 -28 -28 -29 -27 -26 -26 -25 -25 -24 -25 -27 -28 -27 -28 -27 -27
-11 -12 -12 -12 -11 -11 -11 -11 -11 -11 -10 -10 -10 -10 -10 -11 -9 -6 -6 -6 -5 -4 -3 -3 -3 -3 -4 -6 -7 -7 -5 -5 -5 -5 -5 -5 -7 -8 -9 -10 -10 -10 -10 -11 -20 -22 -24 -24 -25 -26 -26 -27 -26 -26 -27 -28 -27 -29 -29 -28 -25 -26 -27 -26 -26 -28 -28 -28 -28 -27 -28 -28 -28 -27 -27 -26 -25 -26 -26 -26 -27 -27 -26 -27 -27
-10 -12 -12 -12 -11 -11 -11 -12 -12 -11 -12 -11 -10 -11 -11 -12 -13 -11 -8 -6 -5 -5 -4 -3 -3 -3 -3 -4 -5 -6 -6 -5 -5 -4 -4 -5 -6 -8 -9 -9 -9 -10 -10 -16 -21 -23 -25 -26 -25 -25 -27 -26 -26 -28 -27 -29 -29 -28 -29 -28 -26 -27 -28 -25 -26 -29 -27 -27 -29 -28 -28 -28 -28 -28 -27 -27 -28 -27 -26 -27 -26 -27 -27 -28 -26
-10 -11 -12 -12 -12 -12 -12 -12 -12 -12 -12 -12 -11 -11 -12 -12 -12 -12 -12 -10 -8 -7 -5 -4 -4 -4 -4 -4 -5 -5 -5 -5 -5 -5 -5 -5 -6 -7 -8 -10 -9 -9 -11 -18 -22 -21 -25 -26 -25 -25 -26 -27 -27 -27 -27 -26 -27 -28 -28 -28 -27 -28 -26 -30 -31 -27 -28 -28 -30 -28 -28 -29 -30 -28 -28 -28 -28 -28 -28 -27 -27 -28 -27 -27 -27
-10 -12 -13 -12 -11 -12 -12 -12 -12 -12 -12 -12 -12 -12 -12 -12 -12 -12 -12 -13 -12 -12 -11 -9 -6 -5 -6 -6 -5 -5 -5 -5 -6 -6 -6 -5 -7 -8 -9 -12 -15 -16 -15 -22 -23 -23 -24 -24 -24 -24 -26 -26 -25 -27 -26 -27 -28 -28 -27 -27 -27 -28 -28 -29 -28 -29 -29 -30 -30 -29 -29 -27 -29 -30 -28 -28 -28 -28 -28 -27 -27 -27 -28 -27 -27
-10 -11 -11 -12 -11 -11 -11 -12 -12 -13 -13 -13 -12 -12 -13 -13 -14 -13 -13 -13 -13 -13 -13 -12 -11 -9 -7 -7 -6 -6 -6 -6 -7 -7 -7 -7 -9 -10 -15 -17 -19 -20 -21 -22 -22 -22 -23 -24 -25 -23 -26 -27 -27 -27 -28 -27 -26 -27 -28 -29 -27 -26 -28 -28 -27 -28 -29 -30 -29 -28 -25 -29 -28 -29 -31 -30 -30 -29 -28 -28 -27 -27 -26 -27 -26
-10 -10 -11 -11 -11 -12 -12 -12 -12 -12 -12 -13 -13 -13 -14 -14 -14 -14 -14 -14 -14 -14 -14 -14 -14 -13 -11 -12 -9 -8 -7 -8 -7 -7 -7 -8 -9 -11 -17 -18 -19 -22 -24 -22 -24 -24 -23 -22 -24 -25 -26 -27 -26 -26 -28 -27 -27 -28 -24 -27 -29 -28 -27 -29 -27 -28 -29 -27 -28 -29 -31 -28 -29 -31 -32 -29 -28 -28 -28 -27 -27 -26 -25 -25 -25
-10 -10 -11 -11 -12 -12 -12 -12 -12 -13 -13 -13 -13 -13 -14 -15 -15 -15 -15 -15 -15 -16 -16 -15 -14 -16 -16 -16 -10 -11 -11 -9 -9 -9 -9 -9 -12 -16 -19 -23 -25 -24 -22 -25 -26 -27 -25 -24 -28 -27 -26 -28 -26 -27 -29 -28 -29 -26 -26 -28 -28 -27 -22 -23 -25 -28 -30 -29 -28 -29 -30 -29 -29 -30 -30 -30 -29 -28 -28 -27 -27 -27 -26 -26 -26
-10 -12 -13 -13 -12 -12 -12 -12 -13 -13 -13 -13 -13 -14 -15 -15 -16 -16 -16 -16 -16 -16 -17 -16 -16 -16 -16 -15 -15 -13 -13 -15 -15 -16 -15 -15 -17 -20 -21 -22 -25 -24 -25 -24 -26 -26 -27 -25 -26 -29 -29 -30 -27 -28 -29 -25 -29 -28 -28 -29 -28 -30 -29 -29 -28 -28 -30 -29 -28 -30 -30 -29 -29 -30 -31 -30 -29 -28 -28 -28 -27 -27 -27 -27 -27
-11 -12 -13 -13 -12 -12 -13 -13 -13 -13 -14 -14 -14 -14 -15 -15 -16 -16 -16 -16 -16 -16 -17 -17 -17 -17 -16 -16 -16 -15 -17 -17 -17 -18 -18 -18 -19 -19 -21 -21 -22 -22 -22 -23 -24 -25 -26 -24 -26 -28 -26 -30 -27 -26 -26 -28 -26 -26 -29 -28 -28 -27 -27 -30 -27 -28 -27 -28 -29 -28 -29 -28 -28 -29 -30 -30 -29 -28 -28 -27 -27 -26 -27 -27 -27
-11 -12 -14 -13 -13 -12 -13 -13 -13 -13 -14 -14 -14 -14 -14 -15 -15 -16 -16 -16 -16 -17 -17 -17 -17 -17 -16 -17 -15 -15 -17 -18 -18 -19 -19 -20 -20 -20 -21 -22 -22 -23 -23 -24 -24 -26 -25 -26 -27 -27 -28 -28 -29 -26 -29 -29 -28 -30 -28 -27 -29 -27 -27 -29 -29 -28 -28 -28 -28 -28 -28 -29 -29 -29 -28 -27 -24 -24 -26 -26 -26 -26 -26 -27 -27
-12 -13 -13 -13 -13 -13 -14 -14 -14 -14 -14 -14 -13 -14 -15 -15 -15 -15 -16 -16 -16 -17 -17 -18 -17 -17 -17 -16 -15 -15 -17 -18 -19 -20 -20 -21 -22 -22 -22 -23 -22 -23 -23 -24 -25 -25 -26 -27 -26 -28 -26 -26 -26 -28 -29 -29 -29 -29 -27 -28 -28 -27 -27 -26 -28 -29 -28 -28 -28 -28 -28 -28 -27 -27 -26 -23 -26 -27 -27 -27 -27 -27 -27 -27 -27
-13 -14 -14 -14 -14 -14 -14 -14 -14 -14 -14 -14 -14 -16 -15 -15 -15 -15 -15 -16 -16 -16 -17 -18 -18 -18 -18 -17 -17 -17 -17 -19 -22 -21 -21 -22 -22 -23 -24 -24 -24 -24 -25 -25 -25 -26 -25 -27 -27 -26 -26 -24 -25 -25 -25 -25 -28 -28 -29 -28 -27 -27 -26 -26 -27 -27 -29 -29 -28 -28 -28 -28 -27 -28 -28 -28 -28 -27 -28 -28 -28 -28 -28 -28 -28
-15 -15 -15 -15 -15 -14 -15 -14 -15 -15 -15 -16 -16 -15 -15 -15 -15 -15 -15 -15 -16 -16 -16 -17 -17 -18 -19 -18 -19 -18 -18 -19 -21 -21 -22 -22 -22 -23 -23 -23 -24 -26 -27 -26 -26 -27 -26 -27 -27 -24 -27 -25 -26 -29 -27 -26 -28 -28 -27 -26 -26 -25 -26 -26 -26 -26 -28 -27 -27 -27 -27 -27 -27 -27 -27 -27 -28 -28 -28 -28 -28 -28 -28 -28 -28
-15 -15 -16 -16 -15 -15 -15 -15 -16 -15 -16 -16 -16 -16 -16 -15 -15 -15 -15 -16 -17 -16 -16 -17 -18 -19 -20 -19 -19 -19 -19 -19 -21 -22 -22 -22 -23 -23 -23 -26 -27 -27 -27 -28 -28 -30 -30 -26 -26 -27 -26 -26 -26 -26 -26 -26 -28 -27 -26 -26 -26 -25 -24 -25 -25 -28 -29 -29 -27 -26 -26 -27 -27 -27 -27 -27 -27 -28 -28 -28 -28 -28 -28 -29 -29
-16 -16 -16 -16 -16 -17 -17 -16 -17 -16 -16 -16 -16 -16 -16 -16 -15 -16 -16 -16 -16 -17 -16 -17 -19 -20 -20 -20 -20 -21 -20 -20 -21 -22 -23 -23 -24 -23 -25 -26 -27 -27 -27 -25 -29 -29 -26 -26 -27 -26 -25 -25 -25 -26 -26 -27 -27 -27 -27 -28 -25 -24 -24 -24 -27 -28 -27 -29 -27 -27 -27 -27 -27 -26 -26 -26 -27 -27 -28 -28 -28 -28 -29 -29 -29
-17 -16 -16 -17 -17 -17 -17 -17 -17 -17 -17 -17 -17 -17 -17 -17 -16 -17 -18 -17 -17 -18 -17 -17 -19 -20 -21 -21 -22 -22 -22 -22 -23 -23 -24 -25 -25 -25 -26 -28 -26 -27 -26 -26 -29 -26 -26 -26 -26 -26 -25 -25 -26 -26 -26 -26 -28 -26 -27 -26 -26 -25 -25 -25 -26 -27 -27 -27 -27 -28 -27 -27 -27 -27 -26 -27 -27 -27 -28 -28 -28 -29 -29 -29 -29
-17 -17 -17 -17 -17 -18 -17 -18 -18 -20 -18 -18 -18 -18 -18 -17 -17 -18 -17 -18 -18 -18 -17 -17 -18 -20 -21 -22 -22 -23 -23 -23 -24 -24 -25 -25 -25 -25 -26 -30 -28 -27 -28 -27 -28 -27 -27 -27 -27 -27 -26 -26 -26 -25 -25 -25 -27 -26 -27 -26 -26 -26 -25 -25 -26 -27 -27 -27 -28 -28 -28 -28 -27 -27 -27 -27 -28 -27 -28 -28 -28 -28 -29 -29 -29
-17 -17 -17 -18 -18 -18 -18 -18 -19 -18 -18 -18 -18 -18 -19 -18 -18 -18 -18 -18 -18 -18 -18 -18 -18 -19 -20 -21 -22 -23 -23 -24 -24 -25 -25 -25 -26 -26 -26 -27 -28 -27 -29 -26 -26 -27 -27 -27 -26 -26 -26 -26 -26 -25 -25 -25 -25 -26 -26 -26 -25 -25 -25 -24 -24 -25 -25 -25 -27 -28 -28 -28 -28 -28 -27 -27 -27 -27 -28 -28 -28 -29 -29 -29 -30
-17 -18 -18 -18 -18 -18 -18 -18 -18 -18 -19 -18 -18 -19 -19 -19 -19 -19 -19 -19 -19 -19 -19 -19 -19 -19 -20 -21 -21 -22 -22 -23 -24 -24 -24 -25 -25 -26 -25 -26 -28 -27 -27 -26 -26 -26 -27 -29 -28 -28 -27 -26 -26 -26 -25 -25 -25 -25 -26 -25 -24 -24 -24 -24 -24 -24 -24 -26 -26 -27 -27 -27 -27 -27 -27 -27 -28 -28 -28 -28 -29 -29 -29 -30 -30
-18 -18 -18 -18 -18 -18 -18 -18 -18 -18 -18 -19 -18 -19 -20 -20 -20 -19 -19 -19 -20 -20 -20 -20 -20 -20 -20 -20 -22 -21 -22 -22 -22 -24 -25 -25 -26 -26 -26 -26 -26 -28 -27 -26 -26 -26 -27 -28 -27 -26 -26 -26 -25 -25 -25 -25 -26 -25 -24 -24 -24 -24 -24 -24 -24 -24 -24 -24 -26 -26 -27 -27 -27 -27 -27 -27 -27 -28 -28 -28 -28 -29 -29 -30 -30